AFL2350 URWW-UWKD

Flight info

Callsign AFL2350
Flight time 1h 34m
Altitude 33000
Route RODUN1E RODUN R807 UROBO P135 DAFOS T789 SONUM SONUM1S
Aircraft A320/M-SDE3FGHIRWY/LB1

Departure

Time 2026-05-07 17:26
Airport Volgograd International Airport (URWW)

Arrival

Time 2026-05-07 19:01
Airport Kazan International Airport (UWKD)
Time Latitude Longitude Altitude Speed Heading
2026-05-07 16:48 48.79130 44.35723 470 ft 0 kts 338°
2026-05-07 17:15 48.79131 44.35723 473 ft 2 kts 338°
2026-05-07 17:16 48.79115 44.35732 448 ft 2 kts 338°
2026-05-07 17:16 48.79100 44.35743 476 ft 2 kts 329°
2026-05-07 17:16 48.79090 44.35761 474 ft 2 kts 274°
2026-05-07 17:16 48.79089 44.35786 474 ft 1 kts 248°
2026-05-07 17:17 48.79089 44.35787 474 ft 0 kts 248°
2026-05-07 17:21 48.79087 44.35777 474 ft 3 kts 248°
2026-05-07 17:21 48.79075 44.35732 470 ft 7 kts 248°
2026-05-07 17:21 48.79065 44.35693 474 ft 2 kts 249°
2026-05-07 17:21 48.79053 44.35647 474 ft 7 kts 248°
2026-05-07 17:22 48.79029 44.35553 474 ft 12 kts 249°
2026-05-07 17:22 48.78993 44.35411 471 ft 17 kts 250°
2026-05-07 17:22 48.78946 44.35225 473 ft 21 kts 249°
2026-05-07 17:22 48.78892 44.35112 470 ft 9 kts 156°
2026-05-07 17:23 48.78818 44.35142 474 ft 13 kts 164°
2026-05-07 17:23 48.78722 44.35189 472 ft 14 kts 162°
2026-05-07 17:23 48.78692 44.35203 473 ft 3 kts 162°
2026-05-07 17:23 48.78655 44.35221 476 ft 8 kts 162°
2026-05-07 17:24 48.78590 44.35250 471 ft 12 kts 171°
2026-05-07 17:24 48.78553 44.35208 475 ft 0 kts 242°
2026-05-07 17:25 48.78552 44.35206 475 ft 1 kts 242°
2026-05-07 17:25 48.78486 44.35012 468 ft 56 kts 244°
2026-05-07 17:26 48.78213 44.34152 460 ft 121 kts 244°
2026-05-07 17:26 48.77779 44.32767 490 ft 165 kts 245°
2026-05-07 17:26 48.77278 44.31157 1059 ft 173 kts 245°
2026-05-07 17:26 48.76764 44.29498 1756 ft 174 kts 247°
2026-05-07 17:27 48.76232 44.27809 2249 ft 187 kts 247°
2026-05-07 17:27 48.75629 44.25921 2629 ft 211 kts 246°
2026-05-07 17:27 48.74952 44.23810 3030 ft 235 kts 247°
2026-05-07 17:27 48.74532 44.21340 3471 ft 253 kts 277°
2026-05-07 17:28 48.75184 44.18880 4176 ft 258 kts 313°
2026-05-07 17:28 48.76697 44.17470 5023 ft 261 kts 348°
2026-05-07 17:28 48.78488 44.17669 5921 ft 264 kts 22°
2026-05-07 17:28 48.80010 44.19237 6854 ft 267 kts 40°
2026-05-07 17:29 48.81346 44.21218 7755 ft 269 kts 43°
2026-05-07 17:29 48.82675 44.23230 8643 ft 271 kts 43°
2026-05-07 17:29 48.84018 44.25265 9516 ft 275 kts 43°
2026-05-07 17:29 48.85392 44.27301 10313 ft 279 kts 39°
2026-05-07 17:30 48.86973 44.29208 10600 ft 301 kts 34°
2026-05-07 17:30 48.88765 44.31069 10918 ft 321 kts 32°
2026-05-07 17:30 48.90660 44.32930 11575 ft 327 kts 31°
2026-05-07 17:30 48.92585 44.34821 12345 ft 331 kts 32°
2026-05-07 17:31 48.94515 44.36754 13117 ft 334 kts 32°
2026-05-07 17:31 48.96450 44.38733 13869 ft 337 kts 33°
2026-05-07 17:31 48.98396 44.40752 14527 ft 340 kts 33°
2026-05-07 17:31 49.00354 44.42803 15176 ft 344 kts 33°
2026-05-07 17:32 49.02330 44.44887 15812 ft 347 kts 34°
2026-05-07 17:32 49.04329 44.46997 16447 ft 352 kts 33°
2026-05-07 17:32 49.06352 44.49131 16867 ft 355 kts 33°
2026-05-07 17:32 49.08384 44.51271 16963 ft 355 kts 33°
2026-05-07 17:33 49.10423 44.53420 17098 ft 358 kts 33°
2026-05-07 17:33 49.12477 44.55585 17783 ft 360 kts 33°
2026-05-07 17:33 49.14546 44.57766 18409 ft 363 kts 33°
2026-05-07 17:33 49.16631 44.59964 18948 ft 366 kts 34°
2026-05-07 17:34 49.18730 44.62187 19479 ft 369 kts 34°
2026-05-07 17:34 49.20850 44.64434 20000 ft 372 kts 34°
2026-05-07 17:34 49.22985 44.66697 20519 ft 375 kts 34°
2026-05-07 17:34 49.25139 44.68983 21034 ft 378 kts 34°
2026-05-07 17:35 49.27308 44.71285 21560 ft 381 kts 34°
2026-05-07 17:35 49.29494 44.73607 22058 ft 384 kts 34°
2026-05-07 17:35 49.31697 44.75949 22557 ft 387 kts 34°
2026-05-07 17:35 49.33918 44.78319 23068 ft 390 kts 34°
2026-05-07 17:36 49.36147 44.80706 23542 ft 393 kts 34°
2026-05-07 17:36 49.38391 44.83113 23950 ft 395 kts 34°
2026-05-07 17:36 49.40656 44.85537 24351 ft 398 kts 34°
2026-05-07 17:36 49.42934 44.87973 24768 ft 401 kts 34°
2026-05-07 17:37 49.45233 44.90435 25140 ft 403 kts 34°
2026-05-07 17:37 49.47540 44.92910 25526 ft 406 kts 34°
2026-05-07 17:37 49.49867 44.95406 25907 ft 409 kts 34°
2026-05-07 17:37 49.52202 44.97916 26276 ft 411 kts 34°
2026-05-07 17:38 49.54555 45.00452 26650 ft 414 kts 34°
2026-05-07 17:38 49.56923 45.03006 27021 ft 417 kts 34°
2026-05-07 17:38 49.59303 45.05572 27397 ft 419 kts 35°
2026-05-07 17:38 49.61700 45.08162 27750 ft 422 kts 35°
2026-05-07 17:39 49.64109 45.10771 28117 ft 424 kts 35°
2026-05-07 17:39 49.66623 45.13173 28476 ft 427 kts 27°
2026-05-07 17:39 49.69369 45.14941 28814 ft 429 kts 18°
2026-05-07 17:39 49.72250 45.16212 29136 ft 432 kts 16°
2026-05-07 17:40 49.75152 45.17470 29442 ft 434 kts 16°
2026-05-07 17:40 49.78072 45.18742 29755 ft 437 kts 16°
2026-05-07 17:40 49.81001 45.20024 30058 ft 439 kts 16°
2026-05-07 17:40 49.83951 45.21316 30323 ft 441 kts 16°
2026-05-07 17:41 49.86905 45.22617 30587 ft 443 kts 16°
2026-05-07 17:41 49.89869 45.23929 30912 ft 443 kts 16°
2026-05-07 17:41 49.92830 45.25238 31283 ft 442 kts 16°
2026-05-07 17:41 49.95785 45.26546 31655 ft 441 kts 16°
2026-05-07 17:42 49.98733 45.27851 32028 ft 440 kts 16°
2026-05-07 17:42 50.01676 45.29150 32405 ft 439 kts 15°
2026-05-07 17:42 50.04633 45.30343 32778 ft 439 kts 14°
2026-05-07 17:42 50.07608 45.31394 32930 ft 437 kts 12°
2026-05-07 17:43 50.13519 45.33269 32950 ft 431 kts 12°
2026-05-07 17:43 50.19398 45.35160 32948 ft 431 kts 12°
2026-05-07 17:44 50.25261 45.37154 32955 ft 431 kts 13°
2026-05-07 17:44 50.31124 45.39182 32947 ft 431 kts 13°
2026-05-07 17:45 50.36989 45.41204 32948 ft 431 kts 13°
2026-05-07 17:45 50.42835 45.43207 32957 ft 431 kts 12°
2026-05-07 17:46 50.48701 45.45220 32942 ft 431 kts 12°
2026-05-07 17:46 50.54599 45.47259 32941 ft 431 kts 12°
2026-05-07 17:47 50.60458 45.49297 32948 ft 431 kts 13°
2026-05-07 17:47 50.66261 45.51315 32949 ft 416 kts 13°
2026-05-07 17:48 50.71800 45.53248 32955 ft 404 kts 13°
2026-05-07 17:48 50.77284 45.55155 32951 ft 403 kts 12°
2026-05-07 17:49 50.82754 45.57086 32945 ft 403 kts 13°
2026-05-07 17:49 50.88220 45.59059 32949 ft 403 kts 13°
2026-05-07 17:50 50.93647 45.61017 32930 ft 403 kts 13°
2026-05-07 17:50 50.99111 45.62985 32945 ft 402 kts 13°
2026-05-07 17:51 51.04474 45.65444 32946 ft 402 kts 24°
2026-05-07 17:51 51.09535 45.69228 32941 ft 402 kts 25°
2026-05-07 17:52 51.14596 45.73023 32935 ft 402 kts 25°
2026-05-07 17:52 51.19656 45.76817 32933 ft 402 kts 25°
2026-05-07 17:53 51.23893 45.80002 32938 ft 402 kts 25°
2026-05-07 17:53 51.28959 45.83824 32934 ft 403 kts 25°
2026-05-07 17:54 51.34024 45.87662 32926 ft 403 kts 25°
2026-05-07 17:54 51.39094 45.91498 32927 ft 403 kts 25°
2026-05-07 17:55 51.44166 45.95347 32923 ft 403 kts 25°
2026-05-07 17:55 51.49234 45.99218 32936 ft 403 kts 25°
2026-05-07 17:56 51.54300 46.03095 32931 ft 403 kts 25°
2026-05-07 17:56 51.59349 46.07033 32934 ft 404 kts 26°
2026-05-07 17:57 51.63504 46.10452 32936 ft 404 kts 27°
2026-05-07 17:57 51.69323 46.15330 32937 ft 404 kts 27°
2026-05-07 17:58 51.74317 46.19483 32944 ft 404 kts 27°
2026-05-07 17:58 51.79317 46.23620 32939 ft 404 kts 27°
2026-05-07 17:59 51.84313 46.27763 32941 ft 404 kts 27°
2026-05-07 17:59 51.89312 46.31918 32936 ft 404 kts 27°
2026-05-07 18:00 51.94307 46.36082 32926 ft 404 kts 26°
2026-05-07 18:00 51.99304 46.40267 32927 ft 404 kts 27°
2026-05-07 18:01 52.04299 46.44452 32938 ft 404 kts 27°
2026-05-07 18:01 52.09292 46.48651 32935 ft 404 kts 27°
2026-05-07 18:02 52.16772 46.54973 32936 ft 404 kts 27°
2026-05-07 18:03 52.21762 46.59190 32942 ft 404 kts 27°
2026-05-07 18:03 52.26752 46.63418 32941 ft 404 kts 27°
2026-05-07 18:04 52.31738 46.67664 32940 ft 404 kts 27°
2026-05-07 18:04 52.36719 46.71926 32939 ft 404 kts 27°
2026-05-07 18:05 52.41706 46.76191 32940 ft 404 kts 27°
2026-05-07 18:05 52.46687 46.80460 32941 ft 404 kts 27°
2026-05-07 18:06 52.51674 46.84745 32934 ft 405 kts 27°
2026-05-07 18:06 52.56663 46.89042 32939 ft 405 kts 27°
2026-05-07 18:07 52.61656 46.93349 32947 ft 405 kts 27°
2026-05-07 18:07 52.66650 46.97663 32945 ft 405 kts 27°
2026-05-07 18:08 52.71641 47.01997 32951 ft 406 kts 27°
2026-05-07 18:08 52.76634 47.06362 32950 ft 406 kts 27°
2026-05-07 18:09 52.81624 47.10731 32946 ft 406 kts 27°
2026-05-07 18:09 52.86624 47.15107 32947 ft 407 kts 27°
2026-05-07 18:10 52.91625 47.19490 32957 ft 407 kts 27°
2026-05-07 18:10 52.96619 47.23895 32961 ft 407 kts 27°
2026-05-07 18:11 53.01614 47.28305 32954 ft 407 kts 27°
2026-05-07 18:11 53.06608 47.32721 32956 ft 407 kts 27°
2026-05-07 18:12 53.11632 47.37172 32954 ft 406 kts 27°
2026-05-07 18:12 53.16618 47.41624 32960 ft 406 kts 27°
2026-05-07 18:13 53.21602 47.46072 32964 ft 406 kts 27°
2026-05-07 18:13 53.26588 47.50518 32958 ft 406 kts 27°
2026-05-07 18:14 53.31571 47.54983 32961 ft 406 kts 28°
2026-05-07 18:14 53.36549 47.59462 32964 ft 406 kts 28°
2026-05-07 18:15 53.41528 47.63952 32964 ft 406 kts 28°
2026-05-07 18:15 53.46499 47.68459 32967 ft 406 kts 28°
2026-05-07 18:16 53.51679 47.72209 32965 ft 405 kts 21°
2026-05-07 18:16 53.56934 47.75661 32971 ft 405 kts 21°
2026-05-07 18:17 53.62173 47.79126 32979 ft 404 kts 21°
2026-05-07 18:17 53.67406 47.82608 32981 ft 404 kts 21°
2026-05-07 18:18 53.72739 47.85503 32982 ft 403 kts 13°
2026-05-07 18:18 53.78188 47.87708 32980 ft 403 kts 13°
2026-05-07 18:19 53.83582 47.90199 32976 ft 402 kts 22°
2026-05-07 18:19 53.88702 47.94027 32976 ft 402 kts 24°
2026-05-07 18:20 53.93817 47.97875 32974 ft 402 kts 24°
2026-05-07 18:20 53.98934 48.01739 32978 ft 402 kts 24°
2026-05-07 18:21 54.04045 48.05597 32968 ft 402 kts 24°
2026-05-07 18:21 54.09158 48.09460 32853 ft 404 kts 24°
2026-05-07 18:21 54.11759 48.11431 31854 ft 415 kts 24°
2026-05-07 18:22 54.14379 48.13429 31474 ft 408 kts 24°
2026-05-07 18:22 54.16086 48.14734 31270 ft 403 kts 24°
2026-05-07 18:22 54.19533 48.17371 30074 ft 413 kts 24°
2026-05-07 18:22 54.22195 48.19409 28959 ft 423 kts 24°
2026-05-07 18:23 54.24847 48.21441 28713 ft 412 kts 24°
2026-05-07 18:23 54.27377 48.23580 28568 ft 399 kts 29°
2026-05-07 18:23 54.29771 48.25877 28212 ft 392 kts 28°
2026-05-07 18:23 54.32182 48.28184 27099 ft 403 kts 28°
2026-05-07 18:24 54.34669 48.30558 26195 ft 411 kts 28°
2026-05-07 18:24 54.37134 48.32916 25972 ft 402 kts 28°
2026-05-07 18:24 54.39561 48.35241 25969 ft 399 kts 29°
2026-05-07 18:24 54.41980 48.37569 25975 ft 399 kts 29°
2026-05-07 18:25 54.44400 48.39903 25975 ft 398 kts 29°
2026-05-07 18:25 54.46818 48.42236 25975 ft 398 kts 29°
2026-05-07 18:25 54.49234 48.44571 25975 ft 398 kts 29°
2026-05-07 18:25 54.51650 48.46911 25339 ft 402 kts 29°
2026-05-07 18:26 54.54121 48.49305 24423 ft 410 kts 29°
2026-05-07 18:26 54.56615 48.51725 23748 ft 412 kts 29°
2026-05-07 18:26 54.59106 48.54143 23077 ft 411 kts 29°
2026-05-07 18:26 54.61590 48.56557 22455 ft 408 kts 29°
2026-05-07 18:27 54.64051 48.58952 21877 ft 405 kts 29°
2026-05-07 18:27 54.66491 48.61335 21310 ft 401 kts 28°
2026-05-07 18:27 54.68894 48.63689 20997 ft 392 kts 28°
2026-05-07 18:27 54.70477 48.65242 20948 ft 382 kts 28°
2026-05-07 18:28 54.72770 48.67492 20974 ft 377 kts 28°
2026-05-07 18:28 54.75043 48.69725 20972 ft 376 kts 28°
2026-05-07 18:28 54.77318 48.71959 20972 ft 376 kts 28°
2026-05-07 18:28 54.79592 48.74193 20972 ft 376 kts 28°
2026-05-07 18:29 54.81864 48.76429 20973 ft 376 kts 28°
2026-05-07 18:29 54.84139 48.78666 20972 ft 376 kts 28°
2026-05-07 18:29 54.86412 48.80908 20975 ft 376 kts 28°
2026-05-07 18:29 54.88682 48.83156 20974 ft 376 kts 28°
2026-05-07 18:30 54.90951 48.85410 20973 ft 376 kts 29°
2026-05-07 18:30 54.93219 48.87670 20975 ft 376 kts 29°
2026-05-07 18:30 54.95488 48.89928 20978 ft 376 kts 28°
2026-05-07 18:30 54.97760 48.92187 20978 ft 376 kts 28°
2026-05-07 18:31 55.00027 48.94444 20981 ft 376 kts 28°
2026-05-07 18:31 55.02298 48.96708 20975 ft 377 kts 28°
2026-05-07 18:31 55.04573 48.98981 20975 ft 377 kts 28°
2026-05-07 18:31 55.06846 49.01253 20978 ft 376 kts 28°
2026-05-07 18:32 55.09059 49.03472 20971 ft 360 kts 28°
2026-05-07 18:32 55.11188 49.05614 20973 ft 345 kts 28°
2026-05-07 18:32 55.13221 49.07666 20973 ft 330 kts 28°
2026-05-07 18:32 55.15166 49.09630 20973 ft 316 kts 28°
2026-05-07 18:33 55.17021 49.11528 20972 ft 303 kts 32°
2026-05-07 18:33 55.18541 49.13993 20974 ft 298 kts 53°
2026-05-07 18:33 55.19442 49.17241 20976 ft 299 kts 76°
2026-05-07 18:33 55.19580 49.20855 20975 ft 300 kts 98°
2026-05-07 18:34 55.18919 49.24303 20973 ft 301 kts 121°
2026-05-07 18:34 55.17572 49.27064 20975 ft 300 kts 143°
2026-05-07 18:34 55.15738 49.28758 20975 ft 299 kts 166°
2026-05-07 18:34 55.13693 49.29137 20974 ft 297 kts 188°
2026-05-07 18:35 55.11724 49.28188 20978 ft 294 kts 207°
2026-05-07 18:35 55.09890 49.26586 20976 ft 295 kts 210°
2026-05-07 18:35 55.08093 49.24855 20976 ft 295 kts 211°
2026-05-07 18:35 55.06314 49.23081 20975 ft 295 kts 211°
2026-05-07 18:36 55.04532 49.21304 20981 ft 295 kts 211°
2026-05-07 18:36 55.02746 49.19543 20979 ft 295 kts 211°
2026-05-07 18:36 55.00955 49.17798 20978 ft 295 kts 211°
2026-05-07 18:36 54.99244 49.15859 20973 ft 293 kts 225°
2026-05-07 18:37 54.98028 49.13071 20974 ft 289 kts 246°
2026-05-07 18:37 54.97473 49.09737 20975 ft 287 kts 267°
2026-05-07 18:37 54.97634 49.06256 20975 ft 286 kts 287°
2026-05-07 18:37 54.98463 49.03192 20973 ft 285 kts 307°
2026-05-07 18:38 54.99882 49.00801 20974 ft 286 kts 327°
2026-05-07 18:38 55.01700 48.99439 20975 ft 287 kts 348°
2026-05-07 18:38 55.03717 48.99310 20971 ft 289 kts
2026-05-07 18:38 55.05623 49.00425 20978 ft 291 kts 24°
2026-05-07 18:39 55.07436 49.02027 20977 ft 293 kts 27°
2026-05-07 18:39 55.09219 49.03743 20975 ft 293 kts 28°
2026-05-07 18:39 55.10990 49.05503 20975 ft 293 kts 28°
2026-05-07 18:39 55.12761 49.07273 20975 ft 293 kts 28°
2026-05-07 18:40 55.14531 49.09033 20973 ft 293 kts 28°
2026-05-07 18:40 55.16308 49.10781 20974 ft 293 kts 27°
2026-05-07 18:40 55.17969 49.12836 20971 ft 294 kts 46°
2026-05-07 18:40 55.19046 49.15865 20974 ft 297 kts 71°
2026-05-07 18:41 55.19324 49.19432 20974 ft 299 kts 96°
2026-05-07 18:41 55.18733 49.22897 20971 ft 300 kts 121°
2026-05-07 18:41 55.17381 49.25637 20973 ft 299 kts 145°
2026-05-07 18:41 55.15513 49.27158 20973 ft 297 kts 170°
2026-05-07 18:42 55.13465 49.27210 20975 ft 295 kts 194°
2026-05-07 18:42 55.11566 49.25923 20979 ft 294 kts 208°
2026-05-07 18:42 55.09759 49.24258 20975 ft 294 kts 210°
2026-05-07 18:42 55.08082 49.22255 20970 ft 293 kts 229°
2026-05-07 18:43 55.06987 49.19139 20980 ft 314 kts 253°
2026-05-07 18:43 55.06695 49.15280 20865 ft 330 kts 275°
2026-05-07 18:43 55.07241 49.11354 20111 ft 340 kts 296°
2026-05-07 18:43 55.08646 49.07995 19337 ft 349 kts 319°
2026-05-07 18:44 55.10742 49.05847 19068 ft 354 kts 340°
2026-05-07 18:44 55.13111 49.04601 18947 ft 357 kts 343°
2026-05-07 18:44 55.15509 49.03454 18970 ft 358 kts 344°
2026-05-07 18:44 55.17920 49.02311 18969 ft 359 kts 344°
2026-05-07 18:45 55.20328 49.01174 18968 ft 358 kts 344°
2026-05-07 18:45 55.22737 49.00037 18969 ft 359 kts 344°
2026-05-07 18:45 55.25111 48.98718 18970 ft 358 kts 339°
2026-05-07 18:45 55.27443 48.97234 18961 ft 352 kts 339°
2026-05-07 18:46 55.29674 48.95804 18846 ft 340 kts 339°
2026-05-07 18:46 55.31864 48.94402 18725 ft 329 kts 339°
2026-05-07 18:46 55.33984 48.93047 18605 ft 319 kts 339°
2026-05-07 18:46 55.36043 48.91734 18487 ft 310 kts 339°
2026-05-07 18:47 55.38040 48.90465 18334 ft 299 kts 339°
2026-05-07 18:47 55.39972 48.89244 17862 ft 292 kts 339°
2026-05-07 18:47 55.41878 48.88061 17314 ft 289 kts 339°
2026-05-07 18:47 55.43749 48.86826 16770 ft 284 kts 330°
2026-05-07 18:48 55.45303 48.84753 16302 ft 281 kts 316°
2026-05-07 18:48 55.46699 48.82349 16021 ft 280 kts 314°
2026-05-07 18:48 55.48066 48.79931 15731 ft 278 kts 314°
2026-05-07 18:48 55.49427 48.77513 15452 ft 277 kts 314°
2026-05-07 18:49 55.50780 48.75101 15186 ft 276 kts 314°
2026-05-07 18:49 55.52117 48.72710 15014 ft 271 kts 314°
2026-05-07 18:49 55.53419 48.70382 14743 ft 263 kts 314°
2026-05-07 18:49 55.54694 48.68093 14316 ft 260 kts 314°
2026-05-07 18:50 55.55956 48.65819 13870 ft 258 kts 314°
2026-05-07 18:50 55.57206 48.63558 13385 ft 256 kts 314°
2026-05-07 18:50 55.58445 48.61305 12891 ft 255 kts 314°
2026-05-07 18:50 55.59672 48.59059 12388 ft 253 kts 314°
2026-05-07 18:51 55.60890 48.56818 11892 ft 251 kts 314°
2026-05-07 18:51 55.62098 48.54610 11425 ft 249 kts 314°
2026-05-07 18:51 55.63313 48.52451 10931 ft 246 kts 321°
2026-05-07 18:51 55.64839 48.51186 10458 ft 244 kts 351°
2026-05-07 18:52 55.66510 48.51499 9973 ft 245 kts 21°
2026-05-07 18:52 55.67984 48.53027 9396 ft 247 kts 32°
2026-05-07 18:52 55.69381 48.54804 8834 ft 247 kts 34°
2026-05-07 18:52 55.70764 48.56609 8295 ft 246 kts 34°
2026-05-07 18:53 55.72136 48.58406 7769 ft 245 kts 34°
2026-05-07 18:53 55.73470 48.60267 7238 ft 245 kts 45°
2026-05-07 18:53 55.74346 48.62860 6998 ft 244 kts 72°
2026-05-07 18:53 55.74484 48.65887 6969 ft 251 kts 99°
2026-05-07 18:54 55.73813 48.68738 6972 ft 254 kts 128°
2026-05-07 18:54 55.72660 48.71121 6970 ft 256 kts 131°
2026-05-07 18:54 55.71479 48.73483 6906 ft 254 kts 131°
2026-05-07 18:54 55.70310 48.75817 6460 ft 252 kts 131°
2026-05-07 18:55 55.69151 48.78131 6001 ft 249 kts 131°
2026-05-07 18:55 55.68015 48.80431 5490 ft 246 kts 126°
2026-05-07 18:55 55.67267 48.83103 5030 ft 241 kts 101°
2026-05-07 18:55 55.67229 48.86010 4561 ft 236 kts 76°
2026-05-07 18:56 55.67842 48.88674 4095 ft 234 kts 62°
2026-05-07 18:56 55.68584 48.91244 3736 ft 235 kts 63°
2026-05-07 18:56 55.69321 48.93825 3453 ft 235 kts 63°
2026-05-07 18:56 55.70057 48.96413 3152 ft 236 kts 64°
2026-05-07 18:57 55.70700 48.99066 2840 ft 234 kts 80°
2026-05-07 18:57 55.70569 49.01867 2583 ft 227 kts 115°
2026-05-07 18:57 55.69760 49.04162 2597 ft 214 kts 125°
2026-05-07 18:57 55.68951 49.06275 2598 ft 200 kts 125°
2026-05-07 18:58 55.68196 49.08245 2626 ft 189 kts 125°
2026-05-07 18:58 55.67460 49.10159 2474 ft 187 kts 125°
2026-05-07 18:58 55.66745 49.12019 2121 ft 183 kts 125°
2026-05-07 18:58 55.66037 49.13858 1854 ft 180 kts 125°
2026-05-07 18:59 55.65333 49.15687 1614 ft 179 kts 124°
2026-05-07 18:59 55.64631 49.17508 1379 ft 179 kts 124°
2026-05-07 18:59 55.63947 49.19280 1163 ft 164 kts 124°
2026-05-07 18:59 55.63336 49.20863 948 ft 148 kts 124°
2026-05-07 19:00 55.62771 49.22326 756 ft 141 kts 124°
2026-05-07 19:00 55.62224 49.23741 581 ft 138 kts 124°
2026-05-07 19:00 55.61682 49.25137 427 ft 136 kts 124°
2026-05-07 19:00 55.61164 49.26490 388 ft 120 kts 124°
2026-05-07 19:01 55.60800 49.27431 397 ft 68 kts 124°
2026-05-07 19:01 55.60630 49.27869 404 ft 18 kts 124°
2026-05-07 19:01 55.60575 49.28010 409 ft 15 kts 124°
2026-05-07 19:01 55.60483 49.28247 407 ft 35 kts 124°
2026-05-07 19:02 55.60377 49.28585 417 ft 14 kts 80°
2026-05-07 19:02 55.60426 49.28636 410 ft 9 kts 10°
2026-05-07 19:02 55.60497 49.28702 413 ft 0 kts 35°
2026-05-07 19:03 55.60498 49.28704 413 ft 0 kts 35°
2026-05-07 19:04 55.60506 49.28714 412 ft 3 kts 35°
2026-05-07 19:04 55.60542 49.28759 415 ft 9 kts 35°
2026-05-07 19:04 55.60583 49.28863 416 ft 12 kts 90°
2026-05-07 19:04 55.60578 49.29029 418 ft 15 kts 92°
2026-05-07 19:05 55.60629 49.29200 417 ft 18 kts 35°
2026-05-07 19:05 55.60747 49.29343 416 ft 23 kts 34°
2026-05-07 19:05 55.60809 49.29483 419 ft 13 kts 105°
2026-05-07 19:05 55.60793 49.29531 418 ft 1 kts 124°
2026-05-07 19:06 55.60785 49.29550 417 ft 3 kts 124°
2026-05-07 19:06 55.60786 49.29661 417 ft 8 kts 40°
2026-05-07 19:06 55.60800 49.29679 420 ft 0 kts 36°
2026-05-07 19:07 55.60805 49.29686 421 ft 0 kts 36°
2026-05-07 19:10 55.60805 49.29687 422 ft 0 kts 36°
2026-05-07 19:10 55.60805 49.29686 421 ft 0 kts 36°
2026-05-07 19:13 55.60805 49.29687 422 ft 0 kts 36°